Theta_e
339 338 338 345 348 349 348 348 349 349 350 349 348 348 348 347 346 344 342 342 342 342 341 340 340 340 340 340 341 341 346 347 347 348 347 346 346 346 346 346 346 346 346 346 346 346 347 347 346 345 344 344 341 341 341 342 342 342 342 341 342 342 343 343 342 342 344 343 344 344 345 345 345 346 344 344 342 341 340 341 340 338 338 339 342
338 339 338 341 349 348 348 348 349 350 350 349 349 348 347 347 347 344 342 342 342 341 341 340 340 340 340 340 340 340 344 347 347 347 346 346 345 345 345 345 345 345 345 344 344 344 345 344 344 344 343 342 342 342 341 340 341 340 339 340 340 341 341 341 342 342 342 342 342 343 342 343 344 343 343 343 342 341 340 340 339 336 336 341 342
339 339 339 342 349 349 348 348 348 348 350 349 347 346 346 345 345 345 343 343 342 342 341 341 341 340 340 339 339 339 343 345 347 347 346 346 345 344 345 344 344 344 344 343 343 343 342 343 343 344 343 342 341 340 339 338 338 337 338 339 340 340 340 340 340 340 340 339 340 340 341 341 340 341 341 341 340 340 340 340 339 339 336 341 339
339 341 339 343 346 348 349 348 348 348 349 348 347 346 346 346 346 344 343 342 342 342 341 341 341 340 340 339 339 339 339 346 346 346 346 346 345 344 344 342 342 342 342 343 343 342 342 341 342 343 342 341 339 337 336 336 336 337 338 338 338 339 339 339 338 338 338 338 338 336 334 331 335 339 339 339 343 344 341 340 340 342 343 342 342
341 342 340 342 344 347 349 349 349 349 348 348 347 347 346 346 346 344 344 343 343 342 342 341 341 340 340 339 339 339 343 346 346 346 346 345 344 343 341 341 341 341 340 341 340 341 341 341 342 342 342 340 337 338 337 336 338 337 338 338 338 338 338 337 337 337 336 336 336 332 328 329 330 336 338 340 344 342 341 341 341 341 340 340 342
342 342 341 342 342 345 348 349 349 349 348 347 346 347 346 346 345 344 343 341 341 341 341 341 340 340 340 339 338 343 346 345 344 345 345 344 343 342 342 341 340 341 340 340 339 340 339 340 341 341 341 338 338 336 336 337 335 337 338 338 338 338 338 338 337 336 335 334 332 327 326 327 329 333 338 340 342 341 341 341 341 342 341 342 342
343 342 341 342 342 343 347 349 349 349 348 347 347 347 346 346 345 344 343 342 342 342 341 341 340 339 339 339 338 346 346 345 345 345 345 344 343 341 339 339 340 340 339 339 339 337 339 340 340 341 341 339 339 338 337 336 335 335 337 339 339 339 339 338 338 336 334 330 327 328 329 330 330 335 341 342 342 342 341 342 342 342 342 342 341
343 342 341 341 341 344 346 349 349 349 348 347 346 346 345 346 345 345 343 342 341 342 341 339 340 339 339 338 342 346 345 345 345 345 345 344 344 341 339 339 339 339 338 338 337 338 339 340 340 340 340 339 338 338 337 337 336 336 338 339 339 339 339 338 336 336 335 329 328 330 331 333 334 335 342 342 342 342 341 342 341 341 342 341 338
342 342 341 340 340 343 346 347 349 349 348 347 346 346 346 346 345 344 344 343 342 341 341 340 339 339 339 338 344 344 344 344 344 343 342 342 342 340 337 337 338 338 338 337 337 338 339 340 341 340 339 338 339 339 339 339 339 339 339 339 339 338 337 336 335 333 331 330 330 331 331 332 333 334 340 341 340 341 340 338 339 341 340 338 338
342 342 341 339 340 342 345 346 349 349 348 347 347 347 347 346 346 345 343 342 342 341 341 340 338 339 339 338 344 344 343 342 342 342 341 341 341 339 337 336 336 336 336 337 337 339 339 339 340 340 341 342 341 340 340 340 340 340 340 339 339 338 337 335 333 332 328 329 330 331 334 336 333 334 338 340 341 341 338 335 336 336 336 337 337
341 341 340 339 340 342 346 348 348 348 348 347 347 347 346 346 346 345 344 342 341 341 341 340 339 339 339 338 337 345 346 345 344 344 343 343 340 339 337 336 336 336 337 336 337 338 338 339 340 340 341 341 341 340 340 340 340 340 339 338 338 337 336 334 331 328 329 329 330 331 335 337 333 334 339 340 340 339 337 337 336 337 336 337 337
341 341 340 340 343 341 346 347 347 348 348 347 347 347 346 346 346 345 343 342 342 341 341 340 340 339 339 339 344 344 344 344 343 343 343 341 340 339 337 337 336 336 336 337 337 338 338 339 340 340 340 340 340 340 340 340 340 339 338 338 337 336 335 333 328 328 327 328 330 331 331 332 333 335 338 339 340 338 335 335 335 337 337 336 336
340 341 341 340 340 341 344 347 346 347 348 347 347 347 346 346 346 345 344 342 341 341 341 340 339 339 338 342 344 343 342 342 342 342 342 341 339 337 336 335 335 336 336 336 337 339 339 339 340 340 340 339 339 339 339 339 339 338 337 336 336 334 332 331 329 329 328 326 327 328 329 331 332 337 338 339 338 337 336 335 335 335 335 335 334
339 341 341 340 340 344 340 343 344 346 347 347 347 347 346 346 345 345 344 343 341 341 341 340 339 339 337 341 343 342 341 341 342 342 342 341 339 338 336 335 335 335 335 336 336 337 338 339 339 340 339 339 338 338 338 337 336 335 333 333 332 331 328 328 328 326 326 326 327 327 327 330 332 335 336 337 336 335 333 333 333 332 332 331 331
339 341 341 340 340 341 342 340 342 343 345 346 346 346 346 346 345 345 344 342 341 340 341 340 339 339 337 337 340 338 338 339 341 341 340 340 338 337 336 335 335 335 335 337 337 337 336 337 338 338 338 337 336 336 336 335 334 334 333 332 331 330 327 325 324 322 323 325 325 326 326 328 335 335 335 335 334 334 333 333 333 331 330 329 328
341 341 341 342 340 338 340 341 338 338 341 343 344 345 345 346 345 345 343 342 341 340 340 340 339 338 338 337 337 336 335 337 339 339 339 338 337 337 336 335 334 334 336 337 336 335 336 337 337 337 336 336 335 335 335 335 334 334 333 331 330 328 326 325 324 322 321 322 322 324 328 331 334 334 334 334 334 333 332 332 332 329 327 326 326
340 341 341 341 340 339 338 339 337 334 335 337 340 341 343 345 345 345 344 342 341 340 340 340 339 338 338 338 337 339 338 337 337 338 337 336 336 335 334 334 334 335 335 335 336 335 337 337 336 336 336 335 335 335 334 334 333 331 331 330 328 326 324 323 322 321 322 323 323 325 328 328 332 333 334 334 334 333 333 332 330 328 326 325 325
339 340 340 341 340 339 337 338 337 337 338 335 334 338 341 343 343 343 343 341 341 340 340 340 339 339 339 338 337 338 338 338 338 338 336 335 335 334 333 332 333 333 335 335 335 335 335 336 336 335 335 334 334 334 333 332 331 329 328 327 326 324 323 322 320 320 322 325 324 327 327 331 332 332 333 333 333 333 331 328 326 325 324 324 324
338 340 340 340 340 340 339 337 336 337 337 338 338 337 335 339 340 340 341 340 340 339 339 338 338 338 337 335 333 332 332 333 334 335 333 333 332 331 333 333 332 334 334 333 334 335 335 335 335 335 334 333 333 332 331 330 329 328 326 323 321 319 318 319 318 320 321 323 324 323 325 332 332 332 333 334 333 330 328 326 325 323 324 324 323
337 338 338 339 340 340 339 337 336 337 337 337 337 337 333 333 336 338 338 338 338 337 336 334 332 332 331 329 327 326 325 326 326 327 330 333 330 327 331 332 332 333 334 332 332 334 334 334 334 333 333 332 331 330 328 327 326 325 323 321 318 316 316 316 317 319 321 323 323 325 330 331 332 332 331 330 332 330 327 324 323 322 323 323 324
335 336 336 338 339 339 337 336 337 337 337 337 337 337 335 330 331 332 333 335 335 334 333 328 324 323 323 321 322 323 322 323 323 322 321 323 323 325 329 332 331 331 333 331 331 332 333 333 332 331 330 328 325 325 324 324 323 321 319 317 314 313 313 316 317 319 321 322 325 327 330 331 331 333 333 332 331 327 325 323 323 322 322 323 323
332 334 336 338 337 338 337 337 337 336 336 336 337 337 335 333 334 334 334 332 329 327 327 327 327 323 320 322 322 322 321 320 320 324 320 322 322 323 327 331 331 331 331 330 330 331 331 331 330 328 326 322 317 313 313 317 318 317 315 313 311 310 312 313 315 316 320 324 326 328 330 330 330 332 333 330 328 326 324 323 324 323 323 322 321
332 333 334 336 337 338 337 337 337 337 337 336 337 336 335 335 333 333 333 328 328 327 326 325 323 323 322 321 320 320 319 319 319 320 320 320 322 322 327 329 330 329 331 329 329 330 329 328 326 323 320 316 310 309 309 308 309 312 311 309 309 309 310 311 312 314 317 321 325 328 329 329 330 331 329 327 325 324 323 322 323 322 321 320 320
332 333 333 336 337 336 337 338 338 337 337 336 336 336 336 336 335 335 335 331 327 326 325 324 323 322 322 321 320 319 318 319 322 322 321 319 321 321 324 325 326 326 327 326 327 326 325 323 320 317 313 309 307 307 307 307 307 307 307 307 307 307 307 308 311 313 315 317 321 327 328 328 327 327 327 326 325 322 322 322 321 321 320 319 318
334 334 334 335 336 337 337 337 338 338 337 337 336 335 336 337 337 336 335 333 329 325 324 323 322 322 321 321 320 319 318 318 318 318 318 319 317 318 320 321 320 319 317 311 310 310 308 306 307 307 305 306 306 306 306 306 306 306 305 305 305 306 306 308 310 310 312 315 317 324 326 327 326 325 324 324 323 321 320 321 322 321 320 319 318
332 333 334 335 336 337 337 337 338 338 337 337 337 335 335 336 336 336 336 334 331 327 324 322 322 321 321 320 319 318 318 317 317 317 317 318 318 318 316 316 316 315 312 307 305 305 304 304 304 304 303 304 304 304 304 305 305 304 304 304 304 304 305 307 308 309 310 313 317 323 325 325 323 324 324 322 322 322 322 322 321 320 319 318 317
330 333 335 336 337 337 337 337 337 337 337 338 337 335 335 337 336 336 335 334 332 329 325 323 322 321 320 320 319 318 317 317 316 316 316 317 317 315 314 314 315 312 310 306 304 304 303 303 302 302 302 302 302 302 303 303 303 304 303 302 302 302 303 305 306 306 308 310 313 319 323 324 324 325 323 322 323 322 321 321 321 319 318 318 318
330 332 334 335 335 336 337 337 337 337 337 338 337 336 336 337 336 334 335 333 332 330 327 324 322 320 320 320 319 319 318 317 316 315 315 315 316 315 314 313 314 310 308 306 303 302 302 302 301 301 302 301 302 301 302 302 301 302 302 301 301 301 301 302 304 304 304 306 308 314 319 322 324 323 324 323 322 321 322 321 319 318 319 317 317
329 331 333 334 335 336 337 337 337 337 338 338 337 336 336 337 336 335 335 331 334 332 329 326 323 321 320 320 319 318 317 317 316 315 314 314 314 313 312 313 312 309 307 304 303 302 301 301 302 302 301 301 300 300 299 299 300 301 301 300 299 299 299 300 301 301 301 302 305 310 317 322 325 324 323 323 322 323 323 322 321 319 318 317 316
328 331 331 332 334 334 336 337 337 337 338 338 337 336 336 336 336 335 336 333 335 334 331 326 325 322 320 319 319 319 318 318 316 315 314 313 313 312 312 311 311 307 306 304 302 301 301 300 301 302 301 300 300 299 299 298 298 298 298 299 298 298 297 297 297 297 297 299 301 304 312 317 323 324 323 321 322 323 321 319 318 319 317 317 316
325 328 331 332 332 332 335 337 338 336 338 337 337 337 336 336 336 336 336 334 335 335 332 329 325 324 323 321 319 319 318 318 317 315 314 313 312 312 312 311 309 306 306 304 302 301 300 301 301 302 301 300 299 298 299 297 296 297 297 297 296 296 296 296 296 296 296 296 297 299 303 312 317 322 323 321 321 320 319 319 318 318 317 316 316
322 324 328 330 331 332 334 336 338 337 336 337 336 337 336 336 335 336 335 335 335 335 334 331 325 324 325 322 321 320 319 318 317 315 314 312 311 311 311 310 309 305 306 303 302 301 300 299 299 300 299 299 297 296 297 297 296 296 296 295 295 294 293 294 294 294 294 294 295 296 298 302 310 314 318 322 320 320 319 319 318 317 317 317 317
323 325 325 326 328 330 332 334 337 336 336 337 337 336 337 336 335 335 335 335 335 335 334 333 329 326 326 324 322 320 319 319 318 316 313 313 311 310 309 309 308 305 306 303 301 299 298 297 297 297 297 297 297 296 296 295 295 294 294 294 294 293 293 292 292 292 292 293 293 293 295 296 297 306 311 316 320 319 318 317 317 318 317 316 315
321 322 322 324 327 329 330 332 334 335 334 337 337 336 335 335 335 336 335 334 335 335 334 334 332 328 326 326 323 321 319 319 319 317 315 313 311 310 310 309 307 306 306 303 300 298 297 297 295 296 297 297 296 296 295 293 293 293 293 292 292 292 292 292 291 290 291 292 292 293 293 293 294 295 299 308 312 318 316 316 315 315 314 315 314
317 317 320 324 324 327 328 330 329 331 330 334 335 336 335 335 334 335 335 334 334 334 335 334 334 332 328 328 325 322 320 320 319 318 315 314 312 310 310 311 309 309 307 303 300 297 297 296 295 295 295 294 294 295 295 293 293 293 292 292 291 291 291 291 291 291 291 291 291 291 291 291 292 293 294 295 301 308 315 319 314 315 313 313 315
318 319 319 320 322 324 326 328 328 328 329 330 333 334 334 334 334 329 335 334 334 334 334 334 334 334 331 330 327 324 321 321 319 318 316 314 312 310 310 310 309 309 307 305 301 298 296 296 295 296 294 293 294 294 295 293 292 292 291 291 291 291 290 290 290 290 290 290 290 290 290 290 290 292 294 292 294 300 308 313 316 318 314 312 312
319 319 318 318 320 322 323 325 326 327 328 328 329 331 332 332 333 332 334 333 334 333 334 334 334 333 333 331 330 327 324 322 320 318 316 314 313 311 310 310 309 309 308 305 302 300 298 296 295 296 296 294 294 293 293 293 292 291 291 291 290 290 290 290 290 290 291 290 289 289 289 289 290 291 288 288 289 292 301 307 309 310 312 317 311
317 318 319 319 320 321 322 324 326 326 327 327 327 328 330 331 330 331 329 333 333 333 334 334 334 334 333 332 332 329 326 324 322 319 317 315 314 312 310 309 309 310 308 306 303 300 299 298 296 296 296 295 294 293 293 292 292 291 290 290 290 290 290 290 290 291 289 289 288 288 287 287 287 287 287 286 286 288 288 295 301 302 306 312 315
316 317 318 319 319 320 320 321 322 324 325 325 324 324 324 325 328 328 328 330 332 332 333 333 333 334 333 333 331 331 327 327 324 321 318 316 315 314 310 310 308 309 308 306 303 300 298 298 297 296 296 296 295 294 294 293 292 291 290 289 290 290 289 290 289 288 288 288 290 290 288 287 286 286 286 284 284 285 287 286 286 287 292 306 310
314 316 316 317 318 318 319 320 321 323 323 323 321 321 320 322 323 320 323 326 329 329 330 332 332 333 332 333 332 332 330 327 327 324 321 317 316 316 312 310 309 309 309 307 303 300 298 297 297 295 294 293 294 294 293 291 290 289 289 289 289 289 289 289 289 288 289 290 287 287 287 286 286 285 285 284 283 283 284 284 287 285 286 295 304
310 312 314 315 317 319 318 319 320 320 322 322 321 321 320 320 320 323 323 325 326 327 327 329 330 331 331 332 332 331 330 329 327 326 324 320 319 319 317 313 311 309 308 307 306 301 300 298 297 295 294 292 292 293 292 292 290 289 288 288 288 289 290 289 287 287 287 287 287 287 287 286 285 285 285 284 283 283 283 283 283 284 285 284 289
308 311 314 316 317 318 318 319 318 319 321 323 322 321 322 323 322 322 323 323 323 323 325 326 327 327 329 330 330 331 332 331 327 328 326 324 321 320 318 315 313 311 309 309 307 302 300 298 296 294 295 293 292 292 292 293 290 290 287 286 291 289 290 288 287 287 286 286 286 286 285 285 285 285 284 284 283 282 282 282 282 283 283 284 284
307 310 313 314 313 315 317 317 317 319 320 321 321 321 320 318 318 314 320 311 313 321 322 322 323 324 325 328 330 331 331 330 330 327 327 326 324 322 320 318 315 313 311 309 306 303 301 298 296 295 293 294 292 293 292 295 291 290 290 288 288 285 287 287 286 285 285 284 285 285 285 284 285 284 284 282 281 281 282 281 282 282 282 282 282
303 305 309 313 314 315 316 316 316 317 319 319 318 319 315 311 307 305 309 312 310 308 315 315 319 321 323 324 326 329 330 330 329 328 327 327 326 324 322 319 317 315 312 310 307 304 301 299 296 296 295 292 291 290 292 293 292 291 289 289 286 285 284 286 284 284 285 284 284 284 285 284 283 283 282 281 282 281 281 281 281 281 282 281 281
303 306 308 312 315 315 316 317 317 316 317 315 315 312 309 306 302 303 303 306 306 307 311 315 317 317 320 320 322 322 325 327 329 328 325 327 326 325 323 321 318 316 314 312 308 306 302 300 297 296 295 295 291 291 291 292 292 296 293 287 285 285 286 286 284 284 284 284 283 283 284 284 283 282 282 282 283 282 281 280 280 281 281 281 281
301 305 307 310 311 312 312 313 313 312 314 313 313 312 313 312 308 310 307 304 308 306 310 314 315 316 318 317 319 320 321 322 325 327 327 325 326 326 325 323 320 318 315 314 311 308 304 300 298 298 296 297 295 291 290 291 293 293 295 295 293 293 289 284 286 285 284 284 283 283 283 284 284 283 283 283 283 282 282 281 280 281 281 281 282
300 300 301 303 306 307 309 311 312 311 310 309 309 310 310 310 311 314 314 313 313 311 307 305 312 314 315 317 318 317 319 320 320 322 325 325 326 326 324 322 320 318 314 314 312 309 306 302 300 299 298 298 297 293 291 290 292 292 293 293 293 292 290 286 287 284 282 282 282 282 283 285 284 283 283 283 283 282 281 281 281 281 281 282 282
298 298 299 300 305 306 307 308 308 307 306 307 308 310 312 310 310 311 312 312 313 313 307 306 303 306 312 315 315 316 316 317 319 318 319 320 319 321 321 320 319 319 315 314 313 310 307 304 301 301 300 299 298 297 294 292 290 291 292 292 291 292 290 292 290 291 288 283 283 283 283 284 284 283 283 283 282 282 282 282 281 281 281 282 282
297 297 298 299 300 301 302 303 304 304 303 305 307 307 310 311 311 311 310 310 310 307 300 301 303 301 307 309 313 314 314 314 315 316 316 316 315 317 318 317 317 317 312 315 313 310 307 304 301 300 300 299 299 299 297 294 292 293 291 291 292 291 290 290 289 289 287 288 287 283 282 282 283 284 284 284 283 282 283 283 282 282 283 282 282
296 296 297 297 298 298 300 301 302 302 302 304 305 306 307 307 308 308 309 309 303 300 299 301 300 298 304 305 309 311 312 312 312 312 313 313 313 313 314 315 316 317 312 314 313 310 307 305 303 301 301 300 300 299 298 297 294 296 295 294 292 290 290 288 288 287 286 288 290 284 284 282 281 284 285 284 282 282 282 282 282 283 283 282 282
294 295 296 296 296 297 298 300 301 300 300 303 304 305 305 306 308 308 308 308 304 302 300 300 298 297 301 302 303 306 308 311 311 310 311 312 312 311 312 313 314 312 312 313 313 312 309 307 305 303 302 301 300 299 298 299 296 296 296 295 294 292 291 289 287 286 288 285 286 286 284 284 284 284 284 284 283 282 282 281 282 283 283 282 282
Wind_Speed
4 3 3 4 7 8 9 9 10 12 13 13 14 15 14 14 14 14 13 13 13 12 13 13 12 13 14 14 13 13 17 17 17 17 16 16 16 17 17 17 17 17 18 18 18 19 19 19 18 18 18 18 19 18 18 18 18 17 17 18 16 16 17 17 17 17 17 18 19 19 19 19 20 21 20 21 21 19 16 17 15 13 11 16 21
7 4 3 2 7 8 9 9 10 11 13 13 14 13 13 13 13 13 13 13 12 12 13 13 13 13 12 13 14 13 17 18 17 17 17 16 16 17 18 18 18 17 18 18 18 19 18 18 17 17 18 18 18 18 18 18 17 16 17 17 17 17 18 18 17 16 16 16 17 17 18 20 19 19 19 20 19 19 16 16 16 11 9 19 20
6 4 2 3 8 9 9 10 10 11 13 13 14 13 12 12 13 13 12 12 12 12 12 13 12 13 13 14 13 12 14 15 17 17 17 17 17 18 18 18 17 17 17 18 18 18 17 16 16 16 17 18 18 18 18 18 17 17 17 17 17 16 17 17 17 16 15 16 15 14 15 18 18 18 18 19 18 19 16 17 16 16 13 22 19
7 4 3 4 8 7 9 11 11 12 13 13 13 13 12 12 13 12 12 12 12 12 12 12 13 13 13 13 13 12 12 16 17 17 18 18 18 18 17 17 16 16 17 17 18 18 16 16 16 16 17 18 17 16 17 18 18 18 18 17 17 17 17 16 16 15 14 12 12 9 7 7 11 18 19 19 21 19 16 18 20 22 23 21 23
7 5 3 3 4 7 8 10 12 12 13 13 13 13 12 12 12 12 12 12 12 11 11 12 12 13 13 12 12 12 15 16 17 16 17 18 17 17 17 16 16 16 16 17 17 17 16 16 15 16 17 18 16 16 17 17 17 17 17 17 16 15 15 15 14 13 12 11 10 7 5 6 7 17 18 20 19 18 18 20 20 20 20 22 22
8 4 3 4 4 5 9 10 12 12 12 13 13 13 12 12 12 12 12 12 11 11 11 11 12 12 13 12 12 15 16 15 15 15 16 17 17 17 16 16 16 16 16 17 17 16 16 15 16 18 18 17 17 17 17 17 17 17 18 16 15 15 14 14 13 13 12 11 9 5 5 4 4 8 19 19 20 17 19 20 21 21 21 22 21
9 3 4 4 4 4 8 10 12 12 12 14 13 13 12 12 12 12 12 12 11 11 11 11 11 11 12 12 12 16 15 15 15 15 16 17 17 17 16 16 16 15 16 17 16 16 15 15 16 18 18 17 17 17 17 17 17 17 16 15 15 14 15 15 14 13 12 7 5 5 6 5 3 7 19 19 19 20 20 21 21 21 22 22 21
6 3 3 3 3 5 8 10 11 12 13 13 13 12 12 12 12 12 12 12 11 10 10 10 10 11 11 12 14 15 14 14 14 15 15 16 17 17 16 15 15 15 16 16 16 16 15 16 17 18 17 17 17 17 17 17 16 16 15 15 15 15 15 15 14 12 11 6 5 6 7 7 8 7 18 19 20 20 21 21 21 22 22 21 15
7 4 4 3 3 6 7 9 12 13 13 13 13 13 12 12 12 12 12 11 11 10 10 10 10 10 10 11 16 15 14 14 14 14 14 15 16 17 16 14 14 15 16 16 16 15 15 15 16 17 17 17 16 16 16 16 16 16 16 15 15 16 15 14 13 11 7 6 7 7 7 7 7 7 16 20 20 21 20 17 18 23 23 19 20
8 5 4 3 4 7 8 9 13 13 14 14 13 13 12 12 12 12 12 11 11 10 10 10 11 10 10 10 16 16 13 12 13 14 14 14 16 16 15 14 13 15 16 16 16 15 15 15 15 16 17 16 16 16 16 17 17 16 17 17 16 16 15 13 12 8 6 6 6 6 8 9 5 7 17 21 22 22 19 18 16 15 16 21 24
9 5 4 4 4 8 9 10 11 11 14 14 13 13 13 12 12 12 12 12 11 11 10 10 10 10 10 11 11 15 16 16 15 15 15 17 17 17 15 14 14 14 15 16 15 15 15 14 15 15 16 17 16 16 17 16 17 17 17 17 16 15 14 13 9 7 7 8 7 6 9 12 7 7 19 21 21 19 16 17 18 20 22 23 23
8 6 5 4 7 9 10 10 11 12 13 13 14 13 13 12 12 12 12 12 12 11 11 10 10 10 9 12 14 14 14 15 14 14 15 16 18 17 15 14 14 14 15 15 15 14 14 14 15 16 17 17 16 17 17 17 17 18 18 17 16 15 16 13 7 6 6 6 6 6 6 7 8 13 22 21 21 21 21 21 20 23 24 25 24
8 6 5 5 5 8 10 11 11 11 12 13 13 14 13 13 12 12 12 12 12 11 11 11 10 9 9 13 14 14 13 12 13 14 15 15 16 17 16 14 15 14 14 15 14 14 14 15 16 17 17 17 17 17 17 17 17 18 17 17 15 14 12 9 6 6 5 5 5 5 5 6 8 19 19 21 21 22 22 23 24 24 24 24 24
9 7 6 5 5 8 10 11 10 10 11 12 13 13 13 12 12 12 12 11 11 11 11 11 11 10 9 13 14 14 13 13 13 14 15 15 16 17 16 14 14 15 15 14 14 14 14 15 16 17 17 17 17 17 17 18 17 16 15 15 13 12 10 8 7 5 5 5 4 4 4 6 8 17 19 19 21 21 22 23 23 24 24 23 22
10 8 7 5 5 5 11 11 11 11 11 11 11 12 13 12 12 12 11 11 11 10 11 11 10 10 9 11 13 12 12 13 14 14 15 15 16 16 15 14 15 15 15 15 15 14 14 15 16 17 17 17 17 16 16 16 16 16 15 14 13 11 9 5 5 5 5 5 5 4 4 4 15 17 18 18 19 20 22 22 23 24 23 22 21
8 8 7 6 5 4 6 9 11 11 10 11 10 11 11 12 11 12 12 12 11 11 10 10 10 10 9 8 10 11 11 12 13 14 14 14 15 15 15 14 15 16 15 15 14 14 15 15 16 17 17 17 16 16 16 15 15 14 14 14 13 11 10 6 5 5 5 5 5 5 7 10 19 19 18 20 21 21 21 22 23 23 21 21 19
8 7 8 7 6 4 5 6 7 10 10 10 10 10 10 11 11 12 11 11 12 12 11 11 11 10 9 9 8 8 8 9 12 14 13 12 12 13 13 13 15 16 15 14 15 15 16 17 17 17 17 17 16 16 15 15 15 15 14 14 12 11 11 8 5 5 5 5 4 6 6 6 15 20 20 19 20 21 21 22 23 22 21 19 19
8 8 9 8 7 6 5 5 5 6 5 8 9 10 10 11 11 11 11 11 11 11 11 11 10 9 8 7 6 7 9 9 8 9 11 11 10 12 13 13 13 15 15 14 15 16 17 18 17 16 17 16 16 16 15 15 15 14 13 13 12 11 9 9 5 4 5 5 6 6 6 8 18 19 20 20 21 22 22 22 21 20 18 18 18
6 8 8 8 8 7 6 5 5 5 6 6 5 7 10 11 10 10 11 11 11 10 10 9 9 8 8 8 7 8 9 11 11 11 10 10 11 10 12 12 13 16 14 14 13 14 15 16 16 16 16 16 16 15 15 14 13 12 12 12 11 11 12 7 5 5 5 6 5 3 3 15 19 19 21 22 22 22 21 20 19 18 18 18 18
6 7 6 7 7 7 6 4 5 5 5 5 5 5 8 10 10 10 11 10 10 11 10 9 9 9 9 9 9 8 8 8 10 8 10 10 10 8 10 9 11 14 14 13 13 13 14 15 16 16 16 16 16 15 14 13 13 13 12 12 11 11 7 5 5 6 5 5 4 3 6 14 16 17 18 20 21 23 20 19 17 17 17 17 18
3 5 5 7 7 7 6 6 5 6 7 6 5 5 6 9 8 10 10 10 10 10 10 10 9 8 8 9 8 6 5 5 6 5 8 6 9 9 9 10 11 12 14 13 12 13 14 14 15 15 15 15 14 14 13 14 13 13 12 10 11 8 5 6 6 5 5 5 5 6 12 10 14 19 21 21 23 22 20 18 16 17 16 17 18
6 6 6 7 6 6 6 7 6 6 5 5 5 5 5 7 5 5 5 7 8 8 7 6 7 5 8 7 5 5 5 4 4 5 4 5 7 10 9 10 11 9 13 13 13 13 14 15 15 15 15 14 11 8 8 10 12 12 10 11 8 5 5 6 6 5 5 5 6 7 13 17 18 20 22 21 21 20 17 16 18 17 16 17 17
8 7 6 7 7 7 6 8 7 7 6 6 4 5 6 5 5 5 5 6 6 6 5 5 4 5 4 4 5 4 4 4 4 4 4 6 6 9 9 10 10 9 12 12 12 13 14 14 15 14 13 11 7 6 6 5 6 9 9 7 6 5 5 6 5 5 4 4 5 7 13 17 18 20 20 18 17 17 15 15 17 16 16 16 16
9 9 8 6 7 7 9 9 8 7 7 6 5 5 5 5 5 5 5 5 5 5 5 5 4 4 5 5 4 4 4 5 5 8 6 4 5 7 9 10 9 9 12 7 10 12 14 14 14 12 8 5 5 5 5 5 5 5 5 5 6 5 6 5 4 4 4 3 2 8 13 17 16 15 16 17 16 15 15 17 13 14 15 15 14
8 6 6 7 9 8 8 8 7 7 7 6 6 6 6 5 5 5 5 5 5 5 5 5 4 4 4 5 4 4 4 4 4 5 5 5 4 4 5 5 4 5 8 6 6 6 7 6 6 6 5 5 6 5 5 5 5 5 5 5 5 5 5 4 5 4 3 3 3 5 12 14 17 15 14 14 14 14 13 15 16 16 15 14 13
4 7 8 8 9 9 9 8 7 7 8 7 7 7 7 6 6 6 6 5 6 5 5 5 5 5 4 5 5 5 4 5 4 4 5 5 4 4 4 4 4 4 5 6 6 5 5 5 6 6 5 5 5 4 4 4 5 5 5 4 5 5 5 5 4 4 3 3 3 6 10 13 13 15 16 13 13 13 14 15 15 15 14 13 14
7 9 8 7 8 9 9 8 8 8 8 7 6 6 6 6 6 6 7 6 6 6 5 5 5 5 5 5 7 5 5 5 4 4 5 5 5 5 4 3 4 5 4 6 5 5 5 5 6 5 5 5 5 4 4 4 3 5 5 5 4 5 5 5 4 4 3 4 6 9 8 10 13 18 13 13 13 13 13 13 13 13 13 13 13
6 9 8 8 9 11 10 10 9 8 8 8 7 8 7 6 6 6 7 7 7 7 6 6 5 6 5 6 5 6 7 6 5 5 4 4 5 4 4 5 5 5 4 5 6 5 5 5 6 5 6 5 6 4 5 4 4 3 5 4 4 4 4 5 4 4 4 5 5 9 9 8 13 12 14 14 13 12 13 13 12 11 12 12 12
9 10 9 9 9 10 10 11 10 11 8 8 8 7 7 7 7 7 7 7 7 7 7 6 6 5 5 6 6 7 6 6 6 5 4 4 4 5 5 5 4 5 5 5 5 6 5 5 6 6 5 6 6 5 5 4 4 4 4 4 3 3 3 4 4 4 3 4 5 7 9 7 11 13 14 15 13 13 13 13 12 12 11 11 11
11 10 9 10 8 9 11 12 12 11 10 9 7 7 8 8 8 8 7 7 7 7 8 7 6 6 6 5 6 6 7 7 7 5 6 6 5 4 5 5 5 5 5 6 5 5 6 5 5 5 5 5 6 5 5 5 5 4 4 4 4 3 3 3 3 4 3 4 5 6 10 9 9 13 13 13 13 13 12 11 11 12 11 11 11
8 11 11 10 8 9 11 12 11 10 9 9 9 9 8 8 7 7 8 7 7 7 8 8 7 7 7 7 7 7 7 6 7 7 6 6 6 6 6 5 5 5 5 5 4 5 5 6 6 6 6 5 5 4 5 6 5 5 4 4 3 4 4 4 3 2 3 4 5 4 6 10 10 6 9 10 13 12 11 11 10 11 10 10 10
11 14 12 9 9 12 11 11 12 10 10 10 8 9 9 9 8 6 8 8 8 7 7 8 9 8 8 9 8 7 7 7 8 7 7 7 7 6 6 6 5 5 5 5 5 5 5 4 4 5 5 5 5 4 3 6 5 4 4 4 3 4 4 3 3 3 4 4 4 4 4 5 9 11 8 9 14 11 12 11 12 10 9 10 11
12 12 10 8 12 11 11 11 11 11 12 12 9 7 8 9 8 7 7 8 8 7 7 7 9 9 9 10 9 9 8 8 8 9 8 7 7 7 6 6 5 5 5 5 6 5 5 5 5 4 5 5 6 5 4 4 5 4 4 4 3 4 3 3 3 3 4 4 4 4 4 3 4 9 10 11 5 13 12 11 11 13 13 9 9
10 7 7 12 11 8 8 8 10 12 12 11 11 8 7 8 9 8 7 7 8 8 7 7 8 9 9 11 10 9 9 8 8 8 8 7 7 8 8 7 6 5 5 6 6 6 6 6 6 6 5 6 6 5 5 5 4 4 4 3 4 3 3 4 3 3 3 4 3 4 4 4 5 4 5 8 11 9 6 10 8 7 7 10 8
7 7 13 14 9 10 8 8 10 10 10 11 11 11 9 7 7 9 8 8 7 8 7 7 7 8 9 10 11 11 10 9 9 9 9 8 9 8 8 8 7 7 6 5 6 5 6 7 7 7 5 5 5 5 5 5 4 4 4 3 4 3 3 3 3 3 3 2 3 3 4 4 4 3 4 4 7 9 11 6 5 11 7 8 12
12 11 10 7 10 10 9 10 9 11 11 11 10 9 9 8 7 7 7 8 7 8 8 7 7 7 8 9 11 11 12 12 10 9 9 8 8 9 10 8 8 7 6 6 6 7 6 6 5 7 8 5 6 5 4 6 4 4 3 3 3 3 3 2 3 3 2 3 3 3 3 3 3 4 3 4 4 6 9 9 13 12 4 6 8
11 10 10 9 9 10 10 11 12 13 11 10 9 8 8 8 7 7 8 8 8 8 8 7 7 8 7 8 10 10 10 10 11 11 9 9 8 7 7 11 11 9 8 8 7 6 8 7 6 5 7 7 7 7 5 5 5 4 3 3 3 3 3 2 2 2 2 3 3 3 3 3 2 3 3 3 3 4 6 10 11 10 11 7 2
9 11 11 11 12 10 11 12 11 10 10 10 10 9 8 7 6 7 7 8 9 8 7 8 8 8 7 7 9 10 10 11 11 11 9 8 8 7 7 7 8 10 10 9 9 8 8 9 8 6 6 7 7 8 7 6 5 4 4 3 2 2 2 2 1 1 2 3 2 3 2 2 2 2 2 2 3 3 3 6 8 9 9 8 8
10 11 10 10 8 8 8 10 10 9 9 8 7 7 6 5 6 6 7 9 8 8 7 8 8 7 8 7 7 8 10 11 11 11 11 11 9 8 7 7 7 7 8 8 6 7 7 8 11 9 5 4 5 5 5 5 6 5 4 4 3 3 2 2 2 1 2 2 2 1 1 2 2 2 2 2 2 3 4 3 3 4 4 9 10
8 8 9 8 9 7 7 8 9 9 6 6 6 6 6 7 8 4 7 9 8 7 7 8 7 8 9 9 8 7 7 10 11 9 9 9 10 10 11 12 12 9 8 10 9 9 11 11 9 11 9 5 4 5 6 7 6 6 5 4 4 4 3 2 2 1 0 1 2 2 2 0 2 2 1 1 1 2 3 3 3 3 3 6 9
6 7 9 10 10 12 10 12 10 8 8 8 8 9 9 7 6 10 11 8 7 7 7 7 7 7 7 8 10 10 8 8 10 11 10 8 8 8 6 5 7 11 10 11 11 12 12 11 9 8 12 9 4 6 7 7 8 5 3 3 3 2 2 2 1 1 2 2 1 2 2 3 2 2 0 0 1 2 2 3 3 3 4 4 3
10 10 12 14 13 10 11 11 7 9 10 11 10 10 10 11 10 10 9 7 7 8 8 6 7 5 6 7 8 9 11 10 8 9 10 10 9 8 9 10 9 9 10 9 8 7 6 5 7 6 3 9 8 10 9 9 3 7 6 3 3 3 1 3 4 4 2 2 2 2 2 3 4 4 2 1 1 1 1 2 3 3 3 3 3
9 10 11 7 7 8 10 8 9 10 10 11 10 11 8 6 7 5 8 5 4 6 5 4 4 6 6 7 8 8 9 9 10 10 11 11 10 9 9 8 11 11 9 8 9 10 10 10 10 10 8 3 3 6 10 10 6 5 4 6 2 1 4 3 3 5 3 3 2 3 3 3 4 2 1 1 2 1 1 1 2 3 3 3 3
5 6 7 10 9 9 9 9 10 10 10 10 11 8 6 4 1 2 3 4 5 4 5 3 4 6 9 7 7 7 8 9 8 9 8 9 13 14 13 12 12 11 12 12 11 12 11 10 10 9 11 9 6 9 10 9 7 12 5 4 3 3 2 12 10 4 4 5 5 6 4 5 4 3 1 3 4 3 2 1 2 2 3 3 3
8 9 10 10 9 13 13 12 10 10 8 8 8 5 5 4 3 3 4 3 3 2 4 6 6 6 6 7 8 5 5 7 9 10 9 9 8 8 9 11 12 13 12 12 13 15 16 16 17 14 14 14 11 8 10 11 10 9 7 6 2 1 9 1 5 5 4 5 6 4 4 5 5 4 4 5 3 3 3 2 3 2 3 3 3
8 10 6 6 5 7 6 6 6 6 8 8 8 7 8 9 7 6 5 4 6 5 9 11 8 8 9 4 5 6 6 6 6 8 10 9 9 9 10 10 12 13 13 14 14 12 13 14 16 15 15 13 13 11 11 10 9 11 8 1 5 7 6 5 6 7 1 5 3 4 6 7 6 6 6 6 6 5 4 5 4 5 4 4 4
7 1 4 5 5 6 6 7 7 6 6 6 7 8 7 7 10 12 11 11 11 9 5 4 6 6 5 6 6 5 7 7 7 7 8 11 12 12 10 10 9 9 8 9 11 14 15 16 13 13 15 12 10 12 14 13 7 9 11 8 2 1 3 9 8 4 2 3 5 6 7 6 5 6 7 7 7 6 5 5 6 6 6 5 5
1 3 4 4 6 6 5 6 5 5 4 5 7 9 10 9 9 9 9 10 11 10 6 6 4 4 7 8 6 6 6 7 7 6 6 6 6 6 7 7 8 9 11 11 11 10 9 9 13 15 12 12 14 14 14 11 16 14 13 11 5 2 3 2 1 9 5 6 7 4 4 6 5 8 8 8 9 8 8 7 6 6 6 6 6
1 3 4 4 3 3 4 4 5 5 5 6 8 8 9 10 10 9 9 8 7 5 3 3 4 4 5 5 6 6 6 6 6 6 5 5 5 6 6 6 6 6 7 9 10 11 13 13 12 11 12 12 12 11 8 12 14 12 10 10 6 5 2 3 2 3 6 6 5 8 9 3 5 9 9 8 8 7 8 8 7 7 7 6 6
1 1 1 2 2 3 4 4 5 4 5 6 7 7 7 7 7 7 10 8 5 3 3 4 4 4 6 6 6 6 6 6 6 6 6 5 5 4 4 5 7 8 8 9 10 11 10 11 13 14 14 15 12 13 14 12 13 11 12 12 11 5 2 5 6 7 5 4 7 8 9 11 11 13 9 10 10 8 7 7 7 7 6 6 6
1 1 1 1 2 3 4 4 4 4 4 6 6 8 6 6 8 8 9 9 6 5 5 5 4 4 7 6 6 6 5 7 5 6 6 5 6 5 5 5 4 3 5 7 9 9 12 14 15 15 14 16 14 14 13 12 11 12 11 11 14 15 16 15 14 10 8 6 2 6 6 11 14 7 6 10 7 7 7 6 8 7 6 6 6
Wind_Direction
196 182 202 234 146 134 131 121 114 109 107 102 94 87 84 83 83 81 79 79 79 78 81 87 89 92 96 97 95 90 93 85 84 84 83 83 81 82 81 79 80 82 83 83 84 82 81 81 81 80 79 79 78 77 78 78 78 79 81 79 64 59 58 56 61 63 64 75 81 83 80 78 78 77 75 74 73 69 63 65 66 68 68 71 73
164 189 181 198 147 137 130 123 118 112 106 101 95 92 90 90 88 84 82 82 81 80 81 83 89 92 91 93 92 95 91 85 87 89 89 85 85 82 79 77 77 79 81 82 81 80 80 79 79 79 79 80 81 81 80 80 78 78 82 76 71 65 63 61 59 63 67 70 75 78 81 81 80 79 79 79 79 79 77 75 72 71 73 78 78
133 137 176 156 141 140 134 125 119 117 108 102 97 96 94 91 89 87 86 86 86 83 81 85 88 89 89 91 94 98 90 90 89 90 88 87 83 82 80 80 80 81 82 84 84 83 81 79 80 82 86 86 85 84 85 86 87 88 89 82 70 66 63 60 58 52 53 59 53 60 71 81 83 82 81 80 82 83 82 81 84 85 84 81 78
131 143 150 148 140 142 141 133 126 120 111 105 104 103 100 97 94 91 89 87 86 88 87 91 91 91 90 93 103 98 96 86 83 88 90 88 85 83 83 84 86 89 92 91 88 84 83 83 84 88 92 90 87 86 86 87 88 88 87 80 70 63 56 53 52 49 46 46 45 48 59 57 68 82 84 84 75 68 69 76 79 79 79 78 78
131 144 145 137 138 144 137 123 125 123 118 113 112 107 104 100 96 95 92 90 92 91 87 87 95 98 98 102 99 99 91 85 88 89 89 89 90 90 89 88 90 94 95 92 90 90 90 89 89 96 99 92 90 90 89 89 87 88 86 77 69 63 59 55 53 50 48 47 49 59 62 75 89 88 88 85 81 75 76 77 79 83 85 85 86
142 142 140 129 130 136 130 131 129 125 122 120 116 112 108 103 101 98 95 93 92 91 91 90 92 95 101 102 101 92 91 92 92 91 90 91 89 87 87 89 93 94 96 95 95 96 95 93 96 100 99 99 97 93 91 91 94 92 89 76 70 65 60 57 54 51 44 38 36 35 35 56 78 89 88 90 92 95 93 89 87 85 79 78 75
143 137 135 132 128 140 140 138 131 129 128 123 121 117 113 110 105 100 99 98 96 95 94 93 92 97 99 96 96 94 94 94 94 93 94 93 91 91 88 88 92 98 99 99 98 98 96 95 98 103 105 103 99 95 93 94 96 95 85 71 65 63 62 57 53 50 47 42 41 41 50 44 41 87 95 97 97 87 84 85 80 75 71 69 72
137 130 130 129 132 149 143 141 136 134 130 126 124 119 116 114 109 105 102 101 100 99 97 95 98 100 102 110 99 93 96 97 99 98 94 94 92 89 87 88 96 104 103 101 99 98 98 97 100 102 99 98 99 99 98 94 92 90 81 69 64 61 58 54 48 46 48 48 45 52 57 51 49 59 86 81 80 81 80 77 79 73 68 69 66
142 132 127 129 144 150 146 144 141 137 133 131 130 125 122 119 115 111 109 105 103 102 101 99 102 104 102 102 105 99 96 95 96 95 96 95 91 88 88 94 103 106 104 102 101 100 100 101 101 101 100 97 95 95 94 93 91 85 78 71 66 61 56 51 47 43 41 44 47 54 57 66 73 81 89 86 83 78 75 71 68 71 73 70 68
148 131 136 140 152 157 148 152 143 141 137 136 135 131 129 128 125 120 114 112 111 109 106 104 104 104 100 99 104 105 104 101 96 93 93 93 92 93 94 99 105 108 104 104 101 100 101 102 104 104 102 99 96 96 97 93 88 83 77 73 70 64 56 51 48 41 47 44 49 58 74 79 75 86 87 86 82 80 78 77 78 76 73 68 68
151 144 144 151 157 156 155 152 144 148 143 141 142 137 137 136 132 126 122 120 117 116 113 110 108 108 106 102 97 81 86 92 96 93 95 98 100 97 95 99 108 108 106 102 100 101 100 101 101 101 100 97 95 94 90 89 86 82 77 75 73 68 63 54 45 48 49 51 52 54 73 75 67 82 90 89 85 79 75 78 80 78 74 72 69
151 150 154 157 162 159 157 149 151 152 147 148 145 143 142 141 137 131 128 126 124 122 120 117 114 112 112 108 99 97 92 89 91 97 100 99 102 101 100 105 110 109 105 99 99 100 101 101 100 98 97 97 96 93 91 88 85 81 80 77 73 70 69 58 43 49 48 50 51 56 60 70 80 87 84 84 82 80 75 76 77 75 72 68 67
152 152 157 160 163 170 155 154 155 156 153 151 150 148 148 147 141 135 133 131 129 126 125 123 121 119 115 113 107 101 98 100 106 106 103 100 103 102 102 105 110 108 107 105 95 95 99 104 102 103 102 99 95 95 93 89 86 86 85 80 72 67 60 43 49 46 46 47 52 52 72 79 82 85 86 85 84 79 77 73 70 70 71 69 67
156 156 159 163 164 171 158 156 157 155 154 153 154 152 151 148 142 137 135 132 130 129 129 128 126 125 122 115 110 109 109 110 112 109 106 102 102 104 106 110 112 111 106 101 98 98 101 106 106 103 103 99 98 99 95 92 86 75 70 67 60 53 41 45 38 40 42 43 56 66 66 82 89 89 86 82 78 77 75 73 71 70 70 70 70
159 160 160 162 167 165 162 160 160 159 159 155 153 154 152 150 145 141 137 135 134 133 131 129 129 128 128 124 120 121 125 123 115 114 113 111 104 105 109 114 117 114 111 99 92 93 107 112 111 105 102 101 98 94 91 89 86 81 76 69 61 52 45 44 36 32 32 30 19 29 41 82 86 84 86 86 82 80 78 77 76 76 75 73 73
159 158 160 166 166 161 161 166 164 161 161 154 153 156 156 154 151 146 145 142 139 137 134 132 131 132 128 117 120 125 130 130 122 117 115 116 113 111 115 120 121 116 112 105 98 106 112 114 111 105 100 103 103 95 89 86 84 82 78 72 60 52 48 50 41 33 29 23 26 29 53 79 85 87 87 87 84 82 81 80 79 78 76 77 79
159 160 164 166 167 164 166 167 167 162 157 155 157 158 159 156 155 151 149 147 145 142 140 139 136 136 132 125 118 118 123 128 129 124 120 118 123 116 118 127 127 123 120 108 105 111 113 113 110 109 103 101 97 93 89 86 82 77 73 74 69 59 55 52 44 27 33 35 44 67 78 78 91 91 90 88 87 88 85 82 79 79 77 79 79
163 165 168 168 169 172 168 168 163 162 156 156 160 163 161 158 160 155 151 149 148 146 146 145 142 138 126 110 99 99 110 109 103 109 112 113 107 114 125 131 130 124 114 104 106 110 112 114 110 103 101 99 96 94 90 88 84 81 77 76 71 61 57 59 50 31 38 51 70 93 113 116 99 97 95 94 91 86 82 79 79 79 81 82 81
160 172 170 170 174 171 172 168 168 162 156 158 164 168 164 162 160 158 152 152 150 147 146 144 139 127 116 105 90 87 95 95 99 103 103 102 105 114 126 132 136 121 113 102 103 103 104 103 101 101 99 98 96 93 90 87 86 85 82 77 68 64 58 56 44 42 48 63 77 89 93 93 103 106 102 97 90 85 83 82 82 84 85 84 85
167 173 169 177 173 174 174 137 153 146 145 154 154 165 168 165 163 157 153 154 151 147 143 138 130 124 111 101 100 96 95 99 102 104 105 101 103 109 122 131 134 125 110 106 106 105 104 104 103 101 99 97 93 89 86 82 77 73 70 69 68 62 57 59 54 49 57 57 55 46 75 110 110 105 104 101 99 94 88 86 89 91 88 87 85
175 184 158 175 177 175 160 153 158 148 166 166 158 159 172 166 163 157 154 153 151 145 139 129 122 116 112 108 101 100 103 104 95 101 101 107 114 119 126 133 135 132 112 112 110 107 105 103 101 98 95 90 83 76 74 77 73 71 68 64 67 61 56 64 63 54 55 57 57 64 80 94 98 99 101 104 97 91 87 88 88 89 88 87 84
176 177 189 185 169 181 153 164 144 161 157 144 166 169 160 167 159 158 154 150 144 135 131 134 131 126 120 113 108 109 109 108 107 105 107 115 118 125 129 131 134 124 117 117 114 108 105 102 99 96 92 86 76 77 70 64 67 70 65 69 65 60 51 61 63 56 52 66 73 92 108 101 103 103 98 93 91 89 89 94 96 92 91 91 91
193 185 182 189 186 182 158 179 173 173 171 148 141 162 161 164 159 155 148 145 143 138 135 133 136 138 133 119 115 114 114 112 115 116 111 116 123 125 129 128 128 130 121 119 117 112 106 101 95 91 87 80 73 77 75 75 69 64 67 67 72 59 56 54 53 48 40 46 102 115 108 103 100 92 89 88 89 95 100 91 85 87 90 92 90
192 191 184 189 188 191 172 184 183 181 174 166 144 157 165 162 161 158 151 145 145 145 143 144 144 148 138 127 122 121 116 117 116 115 110 106 115 120 125 128 132 131 118 104 100 98 95 92 90 86 79 76 83 76 82 74 72 70 72 70 74 69 63 51 50 41 26 5 81 127 103 96 94 97 98 95 96 99 97 96 99 99 93 90 94
192 175 184 192 192 188 181 191 187 184 182 176 159 171 168 165 167 162 157 152 150 149 150 149 153 150 142 134 130 128 123 120 123 121 119 115 105 106 120 127 123 108 91 96 95 89 88 88 80 76 76 84 84 76 86 85 71 75 74 71 77 74 72 61 56 41 20 355 341 114 106 102 101 98 97 99 104 101 99 101 102 99 99 97 95
166 188 194 192 192 189 188 191 189 188 188 181 180 175 172 176 174 168 162 159 158 158 159 158 158 157 149 142 131 125 127 126 133 134 131 132 124 122 124 124 117 103 108 109 108 108 101 99 95 89 77 74 76 74 66 89 99 81 79 69 74 75 74 67 61 55 19 6 355 103 106 110 116 111 104 108 105 102 106 108 105 102 102 101 101
191 201 191 195 191 189 190 188 193 190 193 184 179 169 186 181 178 174 169 170 164 162 170 167 167 161 155 152 145 143 140 143 142 146 146 143 144 143 141 134 126 116 121 123 118 115 115 109 102 98 93 87 78 70 70 65 74 97 82 74 70 76 76 80 69 57 43 36 33 55 107 130 115 109 108 107 108 111 109 108 105 105 105 107 105
199 202 198 195 189 192 189 188 193 193 192 187 182 181 189 184 183 175 182 174 167 172 172 175 164 168 163 163 156 153 153 152 156 154 159 150 157 154 148 141 129 124 126 124 125 120 113 114 114 110 105 92 96 78 72 62 57 67 94 78 74 73 75 82 69 59 40 54 45 33 25 19 112 123 125 122 122 121 119 117 118 117 113 109 107
208 206 203 202 198 190 188 193 193 193 193 190 190 183 187 188 185 184 191 175 180 177 171 166 171 169 170 165 160 156 157 156 160 164 154 164 155 157 159 159 140 141 134 131 136 131 123 124 125 124 118 116 109 99 89 72 60 49 75 83 68 66 68 72 75 66 47 59 61 35 31 32 122 122 131 128 124 125 124 120 119 117 111 106 107
211 206 204 208 203 192 193 196 193 192 190 190 195 189 189 193 189 189 193 177 190 179 168 173 177 169 175 177 174 167 170 167 164 161 164 168 166 162 166 168 158 154 146 144 151 137 134 129 124 124 123 122 119 123 112 95 77 64 52 77 60 46 49 59 55 60 50 60 60 42 33 39 109 131 137 130 125 130 125 127 122 120 120 118 115
207 216 212 209 200 200 202 197 195 190 188 193 194 195 190 196 194 186 190 190 189 181 178 174 176 179 179 179 180 178 171 168 166 166 170 166 169 171 178 169 163 165 154 145 146 142 139 138 142 141 135 125 113 113 114 105 91 79 64 69 59 59 51 40 47 34 54 48 57 51 35 45 52 91 149 136 134 132 131 135 132 129 125 126 122
208 216 212 202 200 207 205 201 198 192 192 196 195 196 193 194 194 192 192 191 186 188 186 180 180 179 180 183 184 182 177 176 172 170 171 170 173 176 175 177 178 167 157 147 143 139 134 124 117 118 119 114 110 94 88 108 96 88 85 73 58 68 54 36 37 50 55 42 35 47 46 40 53 55 44 130 143 143 144 141 142 136 136 140 138
220 217 207 200 209 205 206 206 201 198 199 199 201 202 195 191 193 201 196 188 191 191 190 189 184 181 179 185 188 183 183 179 180 178 176 176 173 170 177 188 176 166 155 149 136 128 119 115 103 109 109 111 111 101 86 85 102 93 91 79 73 45 45 60 35 36 52 42 30 16 29 33 51 52 53 43 102 150 147 149 149 151 151 143 131
220 216 201 213 209 205 206 204 205 203 203 202 201 207 202 193 191 197 196 191 193 194 195 190 187 184 181 184 188 186 186 186 180 182 179 177 177 178 178 183 177 166 153 150 145 144 136 133 135 123 127 131 129 125 119 106 96 99 87 85 79 61 47 50 51 51 39 53 29 25 10 21 37 47 46 46 43 36 140 157 150 155 157 139 146
223 213 212 215 200 207 199 209 203 207 202 205 201 202 201 199 193 192 194 194 196 200 198 195 192 191 184 186 188 188 190 188 185 181 185 183 179 183 185 185 172 163 161 163 148 145 144 147 148 134 126 120 128 138 135 131 131 116 100 102 89 78 60 41 40 48 44 42 59 49 21 20 22 38 35 53 37 45 33 52 175 161 153 151 146
217 217 219 209 210 208 202 210 203 209 207 207 206 202 199 200 198 196 193 194 198 201 202 203 200 194 192 189 192 192 190 187 185 185 184 191 193 184 184 176 171 164 162 159 152 153 155 146 162 148 140 148 142 141 134 131 122 114 93 90 94 90 82 50 30 35 36 54 65 54 54 42 20 22 35 43 47 38 39 41 48 42 84 170 156
215 213 211 203 212 207 204 207 208 208 209 206 210 209 202 202 200 199 200 195 201 201 199 203 206 201 193 194 192 191 195 194 186 185 187 190 196 202 192 177 168 171 167 168 171 165 155 156 162 176 157 154 159 149 142 137 129 118 110 95 82 99 92 77 59 63 350 58 48 51 49 54 40 28 27 40 48 40 36 42 50 47 35 33 185
217 215 212 204 208 201 202 207 211 207 207 206 205 206 206 202 202 203 203 208 208 203 200 200 208 205 197 196 190 194 193 195 193 187 188 193 196 199 190 185 179 171 169 173 181 171 166 160 162 177 167 155 161 160 155 143 130 120 93 63 40 54 60 70 46 49 67 98 47 62 48 53 63 61 44 49 54 53 52 40 44 45 36 29 45
215 212 208 210 205 203 201 208 207 202 204 202 201 202 198 206 206 204 209 215 213 208 201 205 207 206 205 198 193 196 194 197 198 196 190 183 191 193 189 180 183 186 170 169 169 174 174 175 166 166 161 161 159 154 143 135 120 103 83 31 22 12 3 16 18 29 55 61 111 69 83 42 53 35 47 47 49 70 73 51 59 46 25 31 34
214 208 208 204 206 203 200 204 207 200 193 193 183 192 191 200 207 215 223 218 213 209 208 210 203 208 206 201 200 204 196 196 194 197 207 195 191 194 191 180 178 181 184 176 174 179 184 180 181 162 150 118 103 118 122 123 97 85 84 76 43 7 6 358 2 359 340 162 133 171 119 154 83 27 25 12 47 71 81 84 76 69 51 31 35
211 203 203 206 204 202 188 205 198 185 183 188 191 191 197 204 216 213 218 212 214 211 211 212 209 210 203 202 202 206 205 201 199 190 196 199 197 192 180 191 194 182 184 194 190 190 188 182 165 160 156 147 138 143 149 139 128 82 40 52 63 41 349 332 296 271 253 280 279 169 181 164 169 159 185 336 84 88 99 98 95 95 81 58 32
217 200 203 207 204 197 196 203 178 188 194 194 194 195 200 202 198 210 211 206 208 211 217 211 213 212 211 209 209 208 208 206 202 198 191 193 194 193 191 183 184 203 193 183 172 168 171 173 156 142 167 161 160 167 165 136 185 176 155 177 356 329 277 287 270 257 257 278 285 275 220 202 199 198 174 242 174 132 129 112 107 105 94 90 73
211 202 212 205 199 199 204 196 190 189 199 195 189 202 202 203 197 200 192 208 230 218 219 211 201 209 215 216 212 208 209 210 199 198 195 192 195 195 198 194 189 187 184 170 164 172 179 178 176 171 156 141 130 178 177 188 139 96 78 84 256 141 246 248 252 248 232 228 241 251 246 238 228 219 243 261 249 243 219 149 124 119 116 114 112
213 204 203 203 200 202 200 197 196 196 195 197 198 200 186 165 130 144 171 170 192 200 205 215 204 208 220 215 221 214 207 206 204 201 203 209 203 198 190 185 188 192 192 181 178 183 179 180 181 185 166 156 170 191 200 191 148 139 168 200 157 151 315 239 207 232 198 215 209 223 231 238 235 242 272 229 228 238 255 281 159 154 151 139 123
212 208 200 200 198 200 201 198 194 195 197 190 189 164 134 126 103 68 72 73 43 117 189 222 212 213 218 212 221 217 222 217 205 203 203 205 208 212 197 193 193 195 198 195 189 190 186 187 184 178 183 177 181 183 198 204 194 206 137 131 90 270 226 5 128 244 181 229 231 219 222 237 234 231 223 234 228 233 239 242 221 205 184 166 151
221 220 209 211 203 205 198 196 193 191 194 189 178 165 176 172 165 172 190 196 215 185 204 207 203 210 214 202 204 208 221 228 221 213 204 207 213 209 214 210 204 202 201 203 196 190 193 191 190 187 189 192 179 169 192 216 212 215 227 250 154 181 182 179 138 238 26 235 251 221 223 222 219 218 220 222 218 222 215 216 212 210 201 193 179
235 201 196 202 202 198 193 194 196 193 183 176 170 170 178 187 192 199 204 206 214 225 214 203 200 212 204 208 209 206 214 220 225 222 220 215 216 214 214 215 212 214 211 205 197 195 195 195 187 191 193 181 160 183 188 194 202 233 226 220 134 161 189 135 204 81 268 233 216 223 233 226 232 236 229 221 216 216 221 219 213 211 207 198 190
216 178 193 189 197 200 188 196 192 181 178 166 174 182 188 193 199 211 212 217 216 224 189 207 201 188 201 213 210 215 213 220 224 223 225 218 214 219 208 206 208 201 193 204 210 206 199 200 194 198 186 184 186 189 192 182 186 213 209 216 214 21 230 311 210 196 166 172 228 216 244 226 222 233 230 226 219 210 212 218 219 216 211 206 194
204 182 192 191 189 179 177 172 185 179 180 174 180 195 198 196 203 205 219 227 226 231 177 186 193 191 209 212 215 218 216 219 222 226 225 228 220 212 211 212 208 208 199 212 212 200 197 188 186 191 196 195 196 204 190 197 202 212 176 215 208 206 219 243 311 256 173 187 234 188 212 159 242 243 227 224 227 210 211 213 217 217 212 209 201
221 144 122 139 154 150 166 172 196 187 183 184 190 199 203 197 205 210 221 228 216 230 165 206 208 188 217 215 217 218 217 220 220 221 224 219 221 222 216 218 215 203 195 208 204 196 195 196 198 199 200 197 198 199 202 200 205 209 192 190 190 169 180 239 242 218 266 241 210 197 197 186 211 237 204 220 220 213 208 210 217 225 221 214 210
22 68 82 112 127 154 169 182 205 187 187 194 191 203 203 202 211 212 218 225 212 204 214 233 214 213 224 223 216 223 221 227 224 229 226 227 233 229 231 230 232 241 218 203 210 208 202 196 195 201 209 206 203 203 209 207 201 203 198 189 197 193 198 200 205 198 190 190 233 239 195 201 213 235 204 214 213 220 213 207 216 221 223 222 218